Regional Weather Roundup
Issued by NWS Grand Forks, ND

Home | Current Version | Previous Version | Graphics & Text | Print | Product List | Glossary On
Versions: 1 2 3 4 5 6 7 8 9 10 11 12 13 14 15 16 17 18 19 20 21 22 23 24 25 26 27 28 29 30 31 32 33 34 35 36 37 38 39 40 41 42 43 44 45 46 47 48 49 50
000
ASUS43 KFGF 181410
RWRFGF
PRAIRIE TO PINES  WEATHER ROUNDUP
NATIONAL WEATHER SERVICE EASTERN NORTH DAKOTA/GRAND FORKS ND
900 AM CDT FRI APR 18 2014

 **SATELLITE DATA USED TO AUGMENT SKY COVER AT AUTOMATED STATIONS**
 *****  WEATHER ACROSS EASTERN NORTH DAKOTA  *****

CITY           SKY/WX    TMP DP  RH WIND       PRES   REMARKS
GRAND FORKS    PTSUNNY   37  18  46 SE9       30.26F
GRAND FRKS AFB CLOUDY    36  19  49 SE12      30.25F
GRAND FRKS NWS   N/A     37 N/A N/A SE13        N/A
DEVILS LAKE    MOSUNNY   34  19  55 SE17      30.18S WCI  23
FARGO          PTSUNNY   38  25  59 SE12      30.26F
WAHPETON ARPT  PTSUNNY   36  23  60 SE9       30.27F
$$

 ***** WEATHER ACROSS CENTRAL AND WESTERN NORTH DAKOTA  *****

CITY           SKY/WX    TMP DP  RH WIND       PRES   REMARKS
BISMARCK       MOSUNNY   39  22  50 SE22      30.03F
MINOT          CLOUDY    34  20  56 E22G30    30.02F WCI  22
JAMESTOWN      PTSUNNY   36  22  56 SE24G31   30.15F
MINOT AFB      CLOUDY    33  22  63 SE22G31   30.02F WCI  21
GARRISON         N/A     35  23  61 SE25      29.98F WCI  23
WILLISTON      PTSUNNY   38  24  57 SE16G23   29.88S
DICKINSON      MOSUNNY   35  25  66 SE20      29.85F WCI  24
HETTINGER      MOSUNNY   35  26  69 E16       29.87F
$$

 *****  OTHER AIRPORT OBSERVATIONS IN OUR AREA  *****

CITY           SKY/WX    TMP DP  RH WIND       PRES   REMARKS
WALHALLA         N/A     34  18  51 SE13      30.26F WCI  25
GRAFTON AIRPOR FAIR      36  23  60 SE12      30.27F
VALLEY CITY AR FLURRIES  37  25  60 SE18G26   30.20S
CANDO          FAIR      36  19  51 SE22G29   30.17S
CAVALIER APRT  FAIR      34  19  55 SE9       30.27F
GWINNER        MOSUNNY   37  25  60 SE18G24   30.21F
ROLLA          CLOUDY    32  16  51 SE20G28   30.15S WCI  20
 ***** THE ABOVE OBSERVATIONS ARE NON NWS ARE NOT QUALITY
       CONTROLLED AND MAY MIS-REPORT RAIN FOR SNOW...
$$

  *****  WEATHER ACROSS NORTHERN MINNESOTA  *****

CITY           SKY/WX    TMP DP  RH WIND       PRES   REMARKS
FLAG ISLAND    SUNNY     19  12  73 S3        30.35R
WARROAD        SUNNY     27  18  69 E6        30.34S WCI  20
ROSEAU         SUNNY     34  18  51 E7        30.32F
HALLOCK        CLOUDY    36  16  44 SE9       30.29S
THF RVR FALLS  SUNNY     34  19  55 SE9       30.30F
BAUDETTE       SUNNY     28  19  69 E5        30.35S WCI  23
WASKISH        SUNNY     34  25  69 E7        30.33F
CROOKSTON      CLOUDY    36  21  55 E8        30.28F
$$
  *****  WEATHER ACROSS CENTRAL AND WEST MINNESOTA  *****

CITY           SKY/WX    TMP DP  RH WIND       PRES   REMARKS
FOSSTON        PTSUNNY   36  23  60 E8        30.29F
BEMIDJI        SUNNY     33  23  65 SE8       30.31S
PARK RAPIDS    CLOUDY    31  22  69 SE8       30.30S WCI  23
ELBOW LAKE     CLOUDY    34  25  69 SE7       30.28F
WADENA         CLOUDY    30  21  69 E5        30.30S
DETROIT LAKES  MOSUNNY   34  23  64 SE8       30.29S
MOORHEAD       NOT AVBL
FERGUS FALLS   PTSUNNY   37  21  52 SE9       30.25F
MORRIS MN      PTSUNNY   36  25  64 SE15      30.27F
STAPLES        CLOUDY    30  21  69 E3        30.32S
$$
  *****  WEATHER ELSEWHERE ACROSS MINNESOTA  *****

CITY           SKY/WX    TMP DP  RH WIND       PRES   REMARKS
DULUTH         MOSUNNY   33  20  58 NE5       30.36R
INTRNTL FALLS  SUNNY     30  23  75 SE3       30.37R
ELY            MOSUNNY   21  21 100 CALM      30.39R
CLOQUET        SUNNY     32  21  64 CALM      30.37R
WHEATON        PTSUNNY   37  28  70 SE15      30.29S
BRAINERD       CLOUDY    36  23  59 E6        30.34R
HIBBING        SUNNY     34  22  61 E5        30.36R
ALEXANDRIA     CLOUDY    34  22  61 SE9       30.30S
SAINT CLOUD    PTSUNNY   32  24  72 E3        30.35S
MINNEAPOLIS    CLOUDY    33  30  88 E6        30.37S
$$

  *****  WEATHER ACROSS SOUTH DAKOTA  *****

CITY           SKY/WX    TMP DP  RH WIND       PRES   REMARKS
SIOUX FALLS    CLOUDY    38  31  76 SE13      30.21S
BROOKINGS      NOT AVBL
WATERTOWN      CLOUDY    36  28  73 SE15G24   30.18S
HURON          PTSUNNY   41  29  62 SE16G26   30.09F
SISSETON         N/A     34  26  72 S16       30.24S WCI  24
ABERDEEN       CLOUDY    40  28  62 SE17G24   30.11F
MITCHELL       CLOUDY    41  30  65 SE20G28   30.12F
PIERRE         MOSUNNY   41  29  62 SE17      29.93F
MOBRIDGE       SUNNY     39  28  64 SE15G24   29.95F
RAPID CITY     PTSUNNY   39  36  89 SE5       29.82R
$$

  *****  SOME WEATHER IN NEARBY STATES *****

CITY           SKY/WX    TMP DP  RH WIND       PRES   REMARKS
GLASGOW MT     CLOUDY    40  31  70 E25       29.68S
GREAT FALLS MT CLOUDY    45  38  76 SW9       29.66R
CHEYENNE WY    MOSUNNY   48  32  53 SW9       29.99R
SCOTTSBLUFF NE PTSUNNY   45  37  73 E10       29.93R
OMAHA NE       SUNNY     42  31  64 SE7       30.28F HAZE
DES MOINES IA  MOSUNNY   40  32  73 E10       30.36R
DAVENPORT IA   SUNNY     41  34  76 NE8       30.38R
CHICAGO IL     MOSUNNY   46  34  61 NE8       30.33R
EAU CLAIRE WI  CLOUDY    32  29  88 E6        30.37F
LA CROSSE WI   CLOUDY    38  28  67 CALM      30.40R
$$

  *****  SOME NATIONAL WEATHER *****

CITY           SKY/WX    TMP DP  RH WIND       PRES   REMARKS
LA GUARDIA NY  PTSUNNY   38  27  64 NE8       30.55F
RALEIGH NC     CLOUDY    47  36  65 NE10      30.43F
ATLANTA GA     CLOUDY    54  42  64 E13       30.30R
NEW ORLEANS LA PTSUNNY   64  61  90 N13       30.10S
OKLAHOMA CITY  SUNNY     49  39  68 E5        30.27S HAZE
ALBUQUERQUE NM MOSUNNY   48  27  44 N6        30.17R
SALT LAKE CITY CLOUDY    64  23  21 S17G26    29.82S
LOS ANGELES CA MOCLDY    62  51  67 CALM      29.89R
BOISE ID       CLOUDY    49  40  71 NW5       29.97R
SEATTLE WA     MOCLDY    43  38  82 S8        30.06R
$$

*** WEATHER ACROSS MANITOBA...SASKATCHEWAN AND ONTARIO ***
                ***ONTARIO***

CITY           SKY/WX    TMP DP  RH WIND       PRES   REMARKS
GERALDTON      PTSUNNY   27  23  86 N6        30.33R WCI  20
THUNDER BAY    PTSUNNY   30  27  86 NW3       30.38R
SIOUX LOOKOUT  MOSUNNY   25  19  80 CALM      30.37R
TORONTO        CLOUDY    46  32  57 S6        30.28F
BIG TROUT LK   SUNNY     21   7  53 NW3       30.36R
PICKLE LAKE    MOSUNNY   27   0  31 W2        30.36R
DRYDEN         SUNNY     28  21  74 W3        30.37R
KENORA         MOSUNNY   28  12  50 E5        30.35S WCI  23
$$
                *** MANITOBA***

CITY           SKY/WX    TMP DP  RH WIND       PRES   REMARKS
BRANDON        PTSUNNY   32  16  51 SE15G21   30.20S WCI  22
DAUPHIN        SUNNY     30  16  55 E10       30.20F WCI  21
ISLAND LAKE    NOT AVBL
PILOT MOUND      N/A     34  12  40 SE22G28     N/A  WCI  22
THE PAS        MOSUNNY   23   3  42 SE12G18   30.25S WCI  12
THOMPSON       MOSUNNY   18   5  57 CALM      30.34S
WINNIPEG       MOSUNNY   34  12  40 SE10      30.31S
LYNN LAKE      SUNNY     18  -2  41 VRB2      30.27S
CHURCHILL      FLURRIES  10   9  92 S3        30.44R
GILLAM         MOSUNNY   23  10  58 E3        30.38R
$$
                ***SASKATCHEWAN***

CITY           SKY/WX    TMP DP  RH WIND       PRES   REMARKS
ESTEVAN        CLOUDY    32  23  69 SE18G29   29.95S WCI  20
KINDERSLEY     LGT RAIN  36  34  93 SE17      29.64S
LLOYDMINSTER   CLOUDY    30  28  93 E20G25    29.70F WCI  18
PRINCE ALBERT  CLOUDY    28  19  69 E15G23    29.95F WCI  17
REGINA         FLURRIES  32  27  80 SE25G35   29.86F WCI  19
YORKTON        MOSUNNY   30  19  64 SE20G28   30.05S WCI  18
N. BATTLEFORD  FLURRIES  30  28  93 E23G33    29.76F WCI  17
LA RONGE       PTSUNNY   23  10  58 NE9       30.07F WCI  13
SASKATOON      FRZ RAIN  32  28  86 SE25G33   29.81F WCI  19
SWIFT CURRENT  LGT RAIN  37  36  93 SE16G23   29.66S FOG
$$
NOTE: THESE ARE AUTOMATED STATIONS WITH LIMITED QUALITY CONTROL
      "FAIR" INDICATES FEW OR NO CLOUDS BELOW 12,000 FEET WITH NO
      SIGNIFICANT WEATHER AND/OR OBSTRUCTIONS TO VISIBILITY.
      SKY/WX - SKY CONDITION AND SIGNIFICANT WEATHER.
      TMP - AIR TEMPERATURE.    DP   - DEWPOINT TEMPERATURE.
      RH  - RELATIVE HUMIDITY.  PRES - PRESSURE.
      HX  - HEAT INDEX.         WCI  - WIND CHILL INDEX.
$



USA.gov is the U.S. government's official web portal to all federal, state and local government web resources and services.